Location: Presov
(49.0000°N, 21.2500°E)
Time: 00:39:10
(UTC+02:00)

Transit 2A Rocket - Pass Details

Date: 15 April 2021
Orbit: 594 x 908 km, 66.7° (Epoch: 05 May)

Event Time Altitude Azimuth Distance (km) Brightness Sun altitude
Rises 18:02:28 0° 235° (SW) 2,939 9.0 12.9°
Reaches altitude 10° 18:04:54 10° 242° (WSW) 1,997 8.5 12.5°
Maximum altitude 18:09:07 41° 313° (NW) 886 6.2 11.8°
Drops below altitude 10° 18:13:13 10° 25° (NNE) 1,940 6.9 11.1°
Sets 18:15:33 0° 33° (NNE) 2,844 7.7 10.7°
